| time (UTC) | temp C | wind direction | speed KPH | gust KPH | rain 1hr cm | rain 24hr cm | rain mn cm | humidity % | barometer mb |
| 20260901221505 | 27 | 159 | 4.8 | 14.5 | 0.00 | 0.00 | 0.00 | 33 | 1005.9 |
| 20260901220002 | 27 | 180 | 4.8 | 14.5 | 0.00 | 0.00 | 0.00 | 34 | 1005.8 |
| 20260901214503 | 26 | 171 | 1.6 | 11.3 | 0.00 | 0.00 | 0.00 | 38 | 1005.9 |
| 20260901213003 | 26 | 161 | 1.6 | 12.9 | 0.00 | 0.00 | 0.00 | 37 | 1006.1 |
| 20260901211502 | 26 | 191 | 4.8 | 11.3 | 0.00 | 0.00 | 0.00 | 39 | 1006.2 |
| 20260901210004 | 25 | 192 | 0.0 | 9.7 | 0.00 | 0.00 | 0.00 | 41 | 1006.4 |
| 20260901204503 | 25 | 268 | 0.0 | 4.8 | 0.00 | 0.00 | 0.00 | 44 | 1006.7 |
| 20260901203003 | 25 | 203 | 0.0 | 12.9 | 0.00 | 0.00 | 0.00 | 43 | 1006.8 |
| 20260901201509 | 23 | 155 | 6.4 | 14.5 | 0.00 | 0.00 | 0.00 | 45 | 1007.0 |
| 20260901200003 | 22 | 200 | 0.0 | 9.7 | 0.00 | 0.00 | 0.00 | 50 | 1007.3 |
| 20260901194507 | 22 | 171 | 3.2 | 11.3 | 0.00 | 0.00 | 0.00 | 50 | 1007.6 |
| 20260901193004 | 21 | 180 | 1.6 | 12.9 | 0.00 | 0.00 | 0.00 | 51 | 1007.7 |
| 20260901191505 | 21 | 163 | 4.8 | 14.5 | 0.00 | 0.00 | 0.00 | 52 | 1007.7 |
| 20260901190003 | 21 | 175 | 4.8 | 19.3 | 0.00 | 0.00 | 0.00 | 52 | 1007.7 |
| 20260901184504 | 21 | 177 | 4.8 | 22.5 | 0.00 | 0.00 | 0.00 | 52 | 1007.5 |
| 20260901183003 | 21 | 174 | 6.4 | 16.1 | 0.00 | 0.00 | 0.00 | 52 | 1007.5 |
| 20260901181503 | 21 | 182 | 6.4 | 14.5 | 0.00 | 0.00 | 0.00 | 53 | 1007.7 |
| 20260901180003 | 21 | 192 | 4.8 | 14.5 | 0.00 | 0.00 | 0.00 | 52 | 1007.6 |
| 20260901174508 | 20 | 182 | 6.4 | 17.7 | 0.00 | 0.00 | 0.00 | 52 | 1007.7 |
| 20260901173005 | 21 | 177 | 8.0 | 17.7 | 0.00 | 0.00 | 0.00 | 50 | 1007.8 |
| 20260901171502 | 21 | 210 | 6.4 | 14.5 | 0.00 | 0.00 | 0.00 | 45 | 1008.0 |
| 20260901170007 | 21 | 177 | 1.6 | 9.7 | 0.00 | 0.00 | 0.00 | 43 | 1007.4 |
| 20260901164504 | 21 | 150 | 3.2 | 9.7 | 0.00 | 0.00 | 0.00 | 41 | 1007.5 |
| 20260901163005 | 22 | 173 | 3.2 | 9.7 | 0.00 | 0.00 | 0.00 | 40 | 1007.6 |
| 20260901161521 | 21 | 170 | 0.0 | 11.3 | 0.00 | 0.00 | 0.00 | 41 | 1007.6 |
| 20260901160015 | 21 | 203 | 0.0 | 6.4 | 0.00 | 0.00 | 0.00 | 43 | 1007.7 |
| 20260901154507 | 20 | 174 | 0.0 | 9.7 | 0.00 | 0.00 | 0.00 | 43 | 1007.4 |
| 20260901153007 | 19 | 147 | 0.0 | 8.0 | 0.00 | 0.00 | 0.00 | 45 | 1007.4 |
| 20260901151508 | 17 | 163 | 0.0 | 4.8 | 0.00 | 0.00 | 0.00 | 49 | 1007.4 |
| 20260901150011 | 16 | 143 | 0.0 | 0.0 | 0.00 | 0.00 | 0.00 | 57 | 1007.3 |
| 20260901144513 | 16 | 143 | 0.0 | 0.0 | 0.00 | 0.00 | 0.00 | 56 | 1007.3 |
| 20260901143011 | 16 | 143 | 0.0 | 0.0 | 0.00 | 0.00 | 0.00 | 57 | 1007.2 |
| 20260901141511 | 16 | 61 | 0.0 | 0.0 | 0.00 | 0.00 | 0.00 | 56 | 1007.2 |
| 20260901140004 | 16 | 61 | 0.0 | 0.0 | 0.00 | 0.00 | 0.00 | 57 | 1007.0 |
| 20260901134511 | 16 | 61 | 0.0 | 0.0 | 0.00 | 0.00 | 0.00 | 56 | 1006.9 |
| 20260901133009 | 16 | 61 | 0.0 | 0.0 | 0.00 | 0.00 | 0.00 | 54 | 1006.8 |
| 20260901131508 | 16 | 320 | 0.0 | 0.0 | 0.00 | 0.00 | 0.00 | 56 | 1007.1 |
| 20260901130006 | 16 | 180 | 3.2 | 16.1 | 0.00 | 0.00 | 0.00 | 55 | 1007.2 |
| 20260901124504 | 16 | 169 | 0.0 | 0.0 | 0.00 | 0.00 | 0.00 | 58 | 1006.7 |
| 20260901123003 | 16 | 169 | 0.0 | 0.0 | 0.00 | 0.00 | 0.00 | 57 | 1006.6 |
| 20260901121513 | 17 | 169 | 0.0 | 0.0 | 0.00 | 0.00 | 0.00 | 55 | 1006.6 |
| 20260901120013 | 17 | 169 | 0.0 | 0.0 | 0.00 | 0.00 | 0.00 | 60 | 1006.8 |
| 20260901114504 | 17 | 170 | 0.0 | 0.0 | 0.00 | 0.00 | 0.00 | 48 | 1006.7 |
| 20260901113016 | 17 | 170 | 0.0 | 0.0 | 0.00 | 0.00 | 0.00 | 46 | 1006.8 |
| 20260901111505 | 17 | 173 | 0.0 | 0.0 | 0.00 | 0.00 | 0.00 | 47 | 1006.5 |
| 20260901110003 | 17 | 173 | 0.0 | 0.0 | 0.00 | 0.00 | 0.00 | 46 | 1006.6 |
| 20260901104516 | 17 | 173 | 0.0 | 0.0 | 0.00 | 0.00 | 0.00 | 46 | 1006.7 |
| 20260901103008 | 17 | 173 | 0.0 | 0.0 | 0.00 | 0.00 | 0.00 | 47 | 1006.7 |
| 20260901101511 | 17 | 173 | 0.0 | 0.0 | 0.00 | 0.00 | 0.00 | 46 | 1006.8 |
| 20260901100014 | 17 | 173 | 0.0 | 0.0 | 0.00 | 0.00 | 0.00 | 46 | 1006.8 |
| 20260901094511 | 17 | 173 | 0.0 | 0.0 | 0.00 | 0.00 | 0.00 | 45 | 1006.8 |
| 20260901093023 | 17 | 173 | 0.0 | 0.0 | 0.00 | 0.00 | 0.00 | 45 | 1006.7 |
| 20260901091508 | 18 | 173 | 0.0 | 0.0 | 0.00 | 0.00 | 0.00 | 45 | 1006.8 |
| 20260901090019 | 18 | 173 | 0.0 | 0.0 | 0.00 | 0.00 | 0.00 | 47 | 1006.7 |
| 20260901084531 | 18 | 173 | 0.0 | 0.0 | 0.00 | 0.00 | 0.00 | 46 | 1006.9 |
| 20260901083018 | 18 | 173 | 0.0 | 0.0 | 0.00 | 0.00 | 0.00 | 45 | 1007.0 |
| 20260901081515 | 18 | 173 | 0.0 | 0.0 | 0.00 | 0.00 | 0.00 | 44 | 1007.0 |
| 20260901080014 | 18 | 173 | 0.0 | 0.0 | 0.00 | 0.00 | 0.00 | 44 | 1007.0 |
| 20260901074504 | 18 | 173 | 0.0 | 3.2 | 0.00 | 0.00 | 0.00 | 43 | 1007.0 |
| 20260901073002 | 19 | 308 | 0.0 | 0.0 | 0.00 | 0.00 | 0.00 | 42 | 1007.1 |
| 20260901071504 | 19 | 308 | 0.0 | 0.0 | 0.00 | 0.00 | 0.00 | 42 | 1007.0 |
| 20260901070002 | 20 | 308 | 0.0 | 0.0 | 0.00 | 0.00 | 0.00 | 41 | 1007.2 |
| 20260901064504 | 20 | 308 | 0.0 | 0.0 | 0.00 | 0.00 | 0.00 | 41 | 1007.1 |
| 20260901063009 | 20 | 308 | 0.0 | 0.0 | 0.00 | 0.00 | 0.00 | 41 | 1007.2 |
| 20260901061505 | 20 | 308 | 0.0 | 0.0 | 0.00 | 0.00 | 0.00 | 40 | 1007.2 |
| 20260901060009 | 20 | 308 | 0.0 | 0.0 | 0.00 | 0.00 | 0.00 | 40 | 1007.3 |
| 20260901054504 | 21 | 308 | 0.0 | 0.0 | 0.00 | 0.00 | 0.00 | 40 | 1007.4 |
| 20260901053005 | 21 | 308 | 0.0 | 1.6 | 0.00 | 0.00 | 0.00 | 39 | 1007.6 |
| 20260901051503 | 21 | 308 | 0.0 | 0.0 | 0.00 | 0.00 | 0.00 | 39 | 1007.6 |
| 20260901050003 | 21 | 308 | 0.0 | 0.0 | 0.00 | 0.00 | 0.00 | 38 | 1007.7 |
| 20260901044515 | 22 | 308 | 0.0 | 1.6 | 0.00 | 0.00 | 0.00 | 37 | 1007.8 |
| 20260901043003 | 22 | 308 | 0.0 | 0.0 | 0.00 | 0.00 | 0.00 | 37 | 1007.7 |
| 20260901041503 | 22 | 308 | 0.0 | 1.6 | 0.00 | 0.00 | 0.00 | 36 | 1007.7 |
| 20260901040007 | 22 | 308 | 0.0 | 1.6 | 0.00 | 0.00 | 0.00 | 37 | 1007.7 |
| 20260901034504 | 23 | 293 | 0.0 | 1.6 | 0.00 | 0.00 | 0.00 | 36 | 1007.6 |
| 20260901033004 | 23 | 293 | 0.0 | 1.6 | 0.00 | 0.00 | 0.00 | 36 | 1007.5 |
| 20260901031504 | 23 | 293 | 0.0 | 1.6 | 0.00 | 0.00 | 0.00 | 36 | 1007.6 |
| 20260901030004 | 24 | 291 | 0.0 | 0.0 | 0.00 | 0.00 | 0.00 | 35 | 1007.5 |
| 20260901024508 | 25 | 290 | 0.0 | 0.0 | 0.00 | 0.00 | 0.00 | 34 | 1007.5 |
| 20260901023008 | 25 | 290 | 0.0 | 0.0 | 0.00 | 0.00 | 0.00 | 34 | 1007.5 |
| 20260901021509 | 26 | 290 | 0.0 | 1.6 | 0.00 | 0.00 | 0.00 | 33 | 1007.5 |
| 20260901020003 | 26 | 290 | 0.0 | 1.6 | 0.00 | 0.00 | 0.00 | 32 | 1007.6 |
| 20260901014508 | 27 | 290 | 0.0 | 1.6 | 0.00 | 0.00 | 0.00 | 31 | 1007.7 |
| 20260901013009 | 27 | 290 | 0.0 | 1.6 | 0.00 | 0.00 | 0.00 | 30 | 1007.9 |
| 20260901011522 | 27 | 315 | 0.0 | 1.6 | 0.00 | 0.00 | 0.00 | 28 | 1008.0 |
| 20260901010014 | 28 | 325 | 0.0 | 3.2 | 0.00 | 0.00 | 0.00 | 29 | 1008.1 |
| 20260901004512 | 28 | 309 | 0.0 | 1.6 | 0.00 | 0.00 | 0.00 | 29 | 1008.3 |
| 20260901003006 | 28 | 312 | 0.0 | 4.8 | 0.00 | 0.00 | 0.00 | 29 | 1008.3 |
| 20260901001520 | 28 | 309 | 0.0 | 3.2 | 0.00 | 0.00 | 0.00 | 29 | 1008.6 |
| 20260901000019 | 28 | 313 | 0.0 | 1.6 | 0.00 | 0.00 | 0.00 | 29 | 1008.8 |
| 20260831234525 | 28 | 333 | 0.0 | 3.2 | 0.00 | 0.00 | 0.00 | 30 | 1009.1 |
| 20260831233034 | 28 | 297 | 0.0 | 3.2 | 0.00 | 0.00 | 0.00 | 29 | 1009.5 |
| 20260831231514 | 28 | 298 | 0.0 | 3.2 | 0.00 | 0.00 | 0.00 | 29 | 1009.6 |
| 20260831230011 | 28 | 286 | 0.0 | 3.2 | 0.00 | 0.00 | 0.00 | 30 | 1009.9 |
| 20260831224527 | 28 | 312 | 0.0 | 4.8 | 0.00 | 0.00 | 0.00 | 30 | 1010.1 |
| 20260831223033 | 28 | 314 | 0.0 | 4.8 | 0.00 | 0.00 | 0.00 | 30 | 1010.4 |